Location: Six Mile Lake
(44.9000°N, 79.7170°W)
Time: 20:32:21
(UTC-04:00)

AAUSAT CUBESAT 2 - Pass Details

Date: 05 July 2022
Orbit: 566 x 580 km, 97.5° (Epoch: 07 August)

Event Time Altitude Azimuth Distance (km) Brightness Sun altitude
Rises 04:47:47 0° 36° (NE) 2,781 ? -7.9°
Maximum altitude 04:52:36 10° 88° (E) 1,879 ? -7.3°
Drops below altitude 10° 04:52:40 10° 89° (E) 1,879 ? -7.3°
Sets 04:57:24 0° 139° (SE) 2,772 ? -6.6°
